Simultaneous Nadir Overpasses (SNOs) Predictions

Prediction of SNOs between NOAA-15 and METOP-C Satellite Orbit:

Table of predicted SNOs for the next 14.0 days since TLE Epoch: 12/18/2020
Index Date (NOAA-15) Time (NOAA-15) Lat,Lon (NOAA-15) SZA (NOAA-15 ) Date (METOP-C) Time (METOP-C) Lat,Lon (METOP-C) SZA (METOP-C ) Distance(km) Time Diff (sec)
1 12/31/2020 04:44:58 80.97, 145.50 105.62 12/31/2020 04:43:44 80.94, 145.05 105.54 8.28 74
2 12/31/2020 05:35:31 -80.96, -46.92 74.38 12/31/2020 05:34:23 -80.97, -47.08 74.41 3.20 68
3 12/31/2020 06:26:00 80.96, 120.37 105.62 12/31/2020 06:25:04 80.97, 120.30 105.60 1.62 56
4 12/31/2020 07:16:34 -80.97, -72.41 74.39 12/31/2020 07:15:45 -80.96, -72.57 74.43 2.82 49
5 12/31/2020 08:07:03 80.97, 94.87 105.60 12/31/2020 08:06:26 80.96, 94.81 105.58 1.33 37
6 12/31/2020 08:57:36 -80.96, -97.54 74.39 12/31/2020 08:57:06 -80.97, -97.69 74.41 2.78 30
7 12/31/2020 09:48:05 80.97, 69.74 105.60 12/31/2020 09:47:47 80.97, 69.69 105.60 1.09 18
8 12/31/2020 10:38:39 -80.97,-123.03 74.41 12/31/2020 10:38:28 -80.97,-123.17 74.43 2.47 11
9 12/31/2020 11:29:08 80.98, 44.24 105.59 12/31/2020 11:29:09 80.97, 44.21 105.58 1.19 1
10 12/31/2020 12:19:41 -80.97,-148.16 74.41 12/31/2020 12:19:49 -80.98,-148.29 74.41 2.35 8
11 12/31/2020 13:10:10 80.97, 19.10 105.59 12/31/2020 13:10:30 80.98, 19.09 105.60 0.65 20
12 12/31/2020 14:00:44 -80.98,-173.66 74.43 12/31/2020 14:01:11 -80.97,-173.77 74.44 2.14 27
13 12/31/2020 14:51:13 80.98, -6.40 105.57 12/31/2020 14:51:52 80.97, -6.39 105.57 1.32 39
14 12/31/2020 15:41:46 -80.97, 161.21 74.43 12/31/2020 15:42:32 -80.98, 161.11 74.41 1.92 46
15 12/31/2020 16:32:15 80.98, -31.53 105.57 12/31/2020 16:33:13 80.98, -31.51 105.59 0.57 58
16 12/31/2020 17:22:49 -80.98, 135.72 74.45 12/31/2020 17:23:54 -80.97, 135.63 74.44 1.86 65



Historial Predications of SNOs between NOAA-15 and METOP-C
